McGuire AFB, NJ

5:10 PM EDT on July 23, 2017 (GMT -0400)
McGuire Air Force Base

Weather History for KWRI - January, 2014

Change the Weather History Date:

Wednesday, January 15, 2014

  Actual Average Record
Temperature  
Mean Temperature 42 °F -  
Max Temperature 51 °F 36 °F 64 °F (2007)
Min Temperature 34 °F 20 °F 3 °F (2004)
Degree Days  
Heating Degree Days 22    
Moisture  
Dew Point 39 °F    
Average Humidity 96    
Maximum Humidity 100    
Minimum Humidity 65    
Precipitation  
Precipitation 0.00 in - - ()
Sea Level Pressure  
Sea Level Pressure 29.91 in    
Wind  
Wind Speed 4 mph (SW)    
Max Wind Speed 13 mph    
Max Gust Speed 18 mph    
Visibility 5 miles    
Events Fog    
Averages and records for this station are not official NWS values.
T = Trace of Precipitation, MM = Missing Value Source: NWS Daily Summary

Daily Weather History Graph

Daily Weather History Graph

Search for Another Location

Airport or City:

Trip Planner

Search our weather history database for the weather conditions in past years. The results will help you decide how hot, cold, wet, or windy it might be!

Date:

Astronomy

Jan. 15, 2014 Rise Set
Actual Time 7:18 AM EST 4:57 PM EST
Civil Twilight 6:48 AM EST 5:27 PM EST
Nautical Twilight 6:15 AM EST 6:00 PM EST
Astronomical Twilight 5:42 AM EST 6:33 PM EST
Moon 4:53 PM EST (1/15) 6:32 AM EST (1/15)
Length of Visible Light 10h 38m
Length of Day
9h 39m
Full, 100% of the Moon is Illuminated
Jan 15
Full
Jan 15
Full
Jan 24
Last Quarter
Jan 30
New
Feb 6
First Quarter

Hourly Weather History & Observations

Time (EST) Temp. Windchill Dew Point Humidity Pressure Visibility Wind Dir Wind Speed Gust Speed Precip Events Conditions
12:01 AM 39.2 °F - 39.2 °F 100% 29.86 in 1.5 mi WSW 2.3 mph - N/A   Clear
12:04 AM 39.2 °F - 39.2 °F 100% 29.86 in 1.0 mi West 2.3 mph - N/A   Clear
12:07 AM 39.2 °F - 39.2 °F 100% 29.86 in 1.0 mi West 2.3 mph - N/A   Clear
12:10 AM 39.2 °F 37.0 °F 39.2 °F 100% 29.86 in 1.2 mi WSW 3.5 mph - N/A   Clear
12:13 AM 39.2 °F 37.0 °F 39.2 °F 100% 29.86 in 1.8 mi SW 3.5 mph - N/A   Clear
12:16 AM 39.2 °F 37.0 °F 39.2 °F 100% 29.86 in 1.5 mi SW 3.5 mph - N/A   Clear
12:19 AM 37.4 °F 34.9 °F 37.4 °F 100% 29.86 in 1.0 mi SW 3.5 mph - N/A   Clear
12:22 AM 37.4 °F 34.9 °F 37.4 °F 100% 29.87 in 0.5 mi WSW 3.5 mph - N/A Fog Fog
12:25 AM 37.4 °F - 37.4 °F 100% 29.87 in 0.5 mi WSW 2.3 mph - N/A Fog Fog
12:28 AM 37.4 °F - 37.4 °F 100% 29.87 in 0.2 mi WSW 2.3 mph - N/A Fog Fog
12:29 AM 37.4 °F - 37.4 °F 100% 29.87 in 0.2 mi WNW 1.2 mph - N/A Fog Fog
12:44 AM 37.4 °F - 37.4 °F 100% 29.87 in 0.2 mi SSW 2.3 mph - N/A Fog Fog
12:58 AM 38.1 °F - 37.8 °F 99% 29.88 in 0.2 mi SW 2.3 mph - N/A Fog Fog
1:01 AM 37.4 °F - 37.4 °F 100% 29.87 in 0.2 mi SW 2.3 mph - N/A Fog Fog
1:16 AM 37.4 °F 33.8 °F 37.4 °F 100% 29.88 in 0.2 mi SSW 4.6 mph - N/A Fog Fog
1:34 AM 37.4 °F 33.8 °F 37.4 °F 100% 29.89 in 0.2 mi SSW 4.6 mph - N/A Fog Fog
1:55 AM 37.4 °F 33.8 °F 37.4 °F 100% 29.91 in 0.2 mi SSW 4.6 mph - N/A Fog Fog
1:58 AM 37.6 °F 34.0 °F 37.4 °F 99% 29.93 in 0.2 mi SSW 4.6 mph - N/A Fog Fog
2:07 AM 39.2 °F 35.0 °F 39.2 °F 100% 29.91 in 0.2 mi SSW 5.8 mph - N/A Fog Fog
2:19 AM 39.2 °F 33.6 °F 37.4 °F 93% 29.92 in 0.2 mi SSW 8.1 mph - N/A Fog Fog
2:58 AM 37.8 °F 32.5 °F 37.6 °F 99% 29.96 in 0.2 mi SSW 6.9 mph - N/A Fog Fog
3:58 AM 38.3 °F 35.9 °F 38.1 °F 99% 29.94 in 0.2 mi SSE 3.5 mph - N/A Fog Fog
4:58 AM 37.9 °F 35.5 °F 37.8 °F 99% 29.94 in 0.2 mi ESE 3.5 mph - N/A Fog Fog
5:58 AM 36.9 °F 33.1 °F 36.7 °F 99% 29.96 in 0.2 mi South 4.6 mph - N/A Fog Fog
6:58 AM 35.8 °F 30.9 °F 35.6 °F 99% 29.96 in 0.2 mi SE 5.8 mph - N/A Fog Fog
7:13 AM 35.6 °F 31.7 °F 35.6 °F 100% 29.95 in 0.2 mi SSE 4.6 mph - N/A Fog Fog
7:58 AM 34.7 °F 30.6 °F 34.5 °F 99% 29.99 in 0.2 mi South 4.6 mph - N/A Fog Fog
8:07 AM 35.6 °F 30.7 °F 35.6 °F 100% 29.97 in 0.2 mi South 5.8 mph - N/A Fog Fog
8:19 AM 35.6 °F 31.7 °F 33.8 °F 93% 29.98 in 0.2 mi South 4.6 mph - N/A Fog Fog
8:28 AM 35.6 °F 31.7 °F 35.6 °F 100% 29.98 in 0.2 mi SSE 4.6 mph - N/A Fog Fog
8:58 AM 35.2 °F - 34.9 °F 99% 30.01 in 0.2 mi Calm Calm - N/A Fog Fog
9:10 AM 35.6 °F 32.8 °F 35.6 °F 100% 29.99 in 0.2 mi SE 3.5 mph - N/A Fog Fog
9:13 AM 37.4 °F 33.8 °F 35.6 °F 93% 29.99 in 0.5 mi ESE 4.6 mph - N/A Fog Fog
9:16 AM 37.4 °F 33.8 °F 37.4 °F 100% 29.99 in 1.0 mi East 4.6 mph - N/A   Mist
9:19 AM 37.4 °F 33.8 °F 37.4 °F 100% 29.99 in 1.2 mi ESE 4.6 mph - N/A   Mostly Cloudy
9:22 AM 37.4 °F 32.8 °F 37.4 °F 100% 29.99 in 1.5 mi ESE 5.8 mph - N/A   Mostly Cloudy
9:25 AM 37.4 °F 34.9 °F 37.4 °F 100% 29.99 in 2.0 mi ESE 3.5 mph - N/A   Mostly Cloudy
9:28 AM 37.4 °F 33.8 °F 37.4 °F 100% 29.99 in 3.0 mi ESE 4.6 mph - N/A   Mostly Cloudy
9:34 AM 37.4 °F 33.8 °F 37.4 °F 100% 29.99 in 6.0 mi ESE 4.6 mph - N/A   Mostly Cloudy
9:58 AM 39.4 °F 36.1 °F 39.0 °F 99% 30.01 in 10.0 mi SE 4.6 mph - N/A   Mostly Cloudy
10:58 AM 45.5 °F 41.3 °F 45.3 °F 99% 29.99 in 10.0 mi SSE 8.1 mph - N/A   Clear
11:55 AM 50.0 °F - 44.6 °F 82% 29.94 in 10.0 mi South 11.5 mph 18.4 mph N/A   Mostly Cloudy
11:58 AM 49.5 °F - 45.3 °F 86% 29.94 in 10.0 mi South 11.5 mph - N/A   Mostly Cloudy
12:01 PM 50.0 °F - 44.6 °F 82% 29.93 in 10.0 mi South 10.4 mph - N/A   Mostly Cloudy
12:58 PM 50.7 °F - 42.3 °F 73% 29.92 in 10.0 mi South 11.5 mph - N/A   Mostly Cloudy
1:58 PM 51.6 °F - 40.1 °F 65% 29.91 in 10.0 mi South 12.7 mph - N/A   Scattered Clouds
2:58 PM 51.4 °F - 41.0 °F 68% 29.89 in 10.0 mi SSE 8.1 mph - N/A   Scattered Clouds
3:58 PM 50.4 °F - 41.2 °F 71% 29.91 in 10.0 mi SSE 8.1 mph - N/A   Scattered Clouds
4:58 PM 46.8 °F - 42.3 °F 84% 29.89 in 10.0 mi SE 9.2 mph - N/A   Clear
5:58 PM 43.5 °F 41.9 °F 41.7 °F 93% 29.89 in 10.0 mi SE 3.5 mph - N/A   Clear
6:58 PM 41.4 °F 38.4 °F 41.2 °F 99% 29.88 in 10.0 mi SE 4.6 mph - N/A   Clear
7:28 PM 39.2 °F - 39.2 °F 100% 29.87 in 6.0 mi Calm Calm - N/A   Clear
7:31 PM 39.2 °F - 39.2 °F 100% 29.87 in 2.5 mi Calm Calm - N/A   Clear
7:34 PM 39.2 °F - 39.2 °F 100% 29.87 in 1.2 mi WNW 2.3 mph - N/A   Partly Cloudy
7:37 PM 39.2 °F - 37.4 °F 93% 29.87 in 1.0 mi WNW 2.3 mph - N/A   Scattered Clouds
7:40 PM 37.4 °F - 37.4 °F 100% 29.87 in 1.0 mi WNW 2.3 mph - N/A   Scattered Clouds
7:43 PM 37.4 °F - 37.4 °F 100% 29.87 in 1.2 mi NNW 1.2 mph - N/A   Mostly Cloudy
7:46 PM 37.4 °F - 37.4 °F 100% 29.87 in 1.8 mi Calm Calm - N/A   Mostly Cloudy
7:49 PM 37.4 °F - 37.4 °F 100% 29.87 in 3.0 mi NW 2.3 mph - N/A   Mostly Cloudy
7:52 PM 39.2 °F 35.0 °F 39.2 °F 100% 29.87 in 5.0 mi NW 5.8 mph - N/A   Mostly Cloudy
7:55 PM 39.2 °F 35.0 °F 39.2 °F 100% 29.87 in 8.0 mi WNW 5.8 mph - N/A   Mostly Cloudy
7:56 PM 39.2 °F 35.9 °F 39.2 °F 100% 29.87 in 9.0 mi WNW 4.6 mph - N/A   Overcast
7:58 PM 39.2 °F 35.9 °F 39.2 °F 100% 29.88 in 10.0 mi WNW 4.6 mph - N/A   Overcast
8:01 PM 41.0 °F 39.0 °F 41.0 °F 100% 29.87 in 10.0 mi WNW 3.5 mph - N/A   Overcast
8:13 PM 42.8 °F 39.3 °F 42.8 °F 100% 29.88 in 10.0 mi WNW 5.8 mph - N/A   Overcast
8:31 PM 42.8 °F 40.1 °F 42.8 °F 100% 29.87 in 10.0 mi NNW 4.6 mph - N/A   Overcast
8:49 PM 42.8 °F 41.1 °F 42.8 °F 100% 29.87 in 10.0 mi ENE 3.5 mph - N/A   Overcast
8:58 PM 42.8 °F 41.1 °F 42.8 °F 100% 29.88 in 10.0 mi NNW 3.5 mph - N/A   Overcast
9:11 PM 42.8 °F - 42.8 °F 100% 29.87 in 10.0 mi NW 2.3 mph - N/A   Overcast
9:29 PM 42.8 °F 40.1 °F 42.8 °F 100% 29.87 in 9.0 mi NW 4.6 mph - N/A   Overcast
9:35 PM 42.8 °F 38.6 °F 42.8 °F 100% 29.87 in 9.0 mi WNW 6.9 mph - N/A   Overcast
9:58 PM 42.8 °F 39.3 °F 42.3 °F 98% 29.88 in 9.0 mi NW 5.8 mph - N/A   Overcast
10:01 PM 42.8 °F 39.3 °F 42.8 °F 100% 29.87 in 9.0 mi NW 5.8 mph - N/A   Overcast
10:07 PM 42.8 °F 38.6 °F 42.8 °F 100% 29.88 in 10.0 mi NW 6.9 mph - N/A   Overcast
10:22 PM 42.8 °F 38.0 °F 41.0 °F 93% 29.88 in 10.0 mi WNW 8.1 mph - N/A   Overcast
10:49 PM 41.0 °F 35.2 °F 39.2 °F 93% 29.87 in 10.0 mi WNW 9.2 mph - N/A   Overcast
10:52 PM 41.0 °F 34.7 °F 39.2 °F 93% 29.87 in 10.0 mi WNW 10.4 mph - N/A   Overcast
10:58 PM 41.4 °F 36.2 °F 38.8 °F 91% 29.88 in 10.0 mi NW 8.1 mph - N/A   Overcast
11:25 PM 41.0 °F 36.4 °F 37.4 °F 87% 29.88 in 10.0 mi NW 6.9 mph - N/A   Overcast
11:58 PM 40.8 °F 35.6 °F 36.7 °F 85% 29.88 in 10.0 mi NW 8.1 mph - N/A   Overcast